<?xml version="1.0" encoding="UTF-8" standalone="no" ?>
<gpx xmlns="http://www.topografix.com/GPX/1/1" xmlns:xsi="http://www.w3.org/2001/XMLSchema-instance" xsi:schemaLocation="http://www.topografix.com/GPX/1/1 http://www.topografix.com/GPX/1/1/gpx.xsd" version="1.1" creator="VisuGPX - https://www.visugpx.com">
  <metadata>
    <name>Curel</name>
    <desc><![CDATA[grp_trc:]]></desc>
  </metadata>
  <trk>
    <name><![CDATA[Curel]]></name>
    <cmt><![CDATA[7:01:31 AM]]></cmt>
    <desc><![CDATA[comment ...]]></desc>
    <trkseg>
      <trkpt lat="44.17717" lon="5.66104">
        <ele>748</ele>
        <time>2022-01-27T06:01:31Z</time>
      </trkpt>
      <trkpt lat="44.17717" lon="5.66104">
        <ele>748</ele>
        <time>2022-01-27T06:01:31Z</time>
      </trkpt>
      <trkpt lat="44.17705" lon="5.66086">
        <ele>748</ele>
        <time>2022-01-27T06:01:31Z</time>
      </trkpt>
      <trkpt lat="44.17694" lon="5.66036">
        <ele>748</ele>
        <time>2022-01-27T06:01:31Z</time>
      </trkpt>
      <trkpt lat="44.177" lon="5.66025">
        <ele>748</ele>
        <time>2022-01-27T06:01:31Z</time>
      </trkpt>
      <trkpt lat="44.17708" lon="5.65999">
        <ele>749</ele>
        <time>2022-01-27T06:01:31Z</time>
      </trkpt>
      <trkpt lat="44.17709" lon="5.65984">
        <ele>750</ele>
        <time>2022-01-27T06:01:31Z</time>
      </trkpt>
      <trkpt lat="44.17709" lon="5.65984">
        <ele>754</ele>
        <time>2022-01-27T06:01:31Z</time>
      </trkpt>
      <trkpt lat="44.17721" lon="5.65955">
        <ele>755</ele>
        <time>2022-01-27T06:01:31Z</time>
      </trkpt>
      <trkpt lat="44.1772" lon="5.65941">
        <ele>757</ele>
        <time>2022-01-27T06:01:31Z</time>
      </trkpt>
      <trkpt lat="44.17735" lon="5.65922">
        <ele>759</ele>
        <time>2022-01-27T06:01:31Z</time>
      </trkpt>
      <trkpt lat="44.17752" lon="5.65863">
        <ele>764</ele>
        <time>2022-01-27T06:01:31Z</time>
      </trkpt>
      <trkpt lat="44.17752" lon="5.65863">
        <ele>784</ele>
        <time>2022-01-27T06:01:31Z</time>
      </trkpt>
      <trkpt lat="44.17754" lon="5.65839">
        <ele>785</ele>
        <time>2022-01-27T06:01:31Z</time>
      </trkpt>
      <trkpt lat="44.17759" lon="5.65831">
        <ele>786</ele>
        <time>2022-01-27T06:01:31Z</time>
      </trkpt>
      <trkpt lat="44.17761" lon="5.65817">
        <ele>787</ele>
        <time>2022-01-27T06:01:31Z</time>
      </trkpt>
      <trkpt lat="44.17768" lon="5.65812">
        <ele>789</ele>
        <time>2022-01-27T06:01:31Z</time>
      </trkpt>
      <trkpt lat="44.1779" lon="5.65779">
        <ele>792</ele>
        <time>2022-01-27T06:01:31Z</time>
      </trkpt>
      <trkpt lat="44.17802" lon="5.65745">
        <ele>795</ele>
        <time>2022-01-27T06:01:31Z</time>
      </trkpt>
      <trkpt lat="44.17808" lon="5.65731">
        <ele>798</ele>
        <time>2022-01-27T06:01:31Z</time>
      </trkpt>
      <trkpt lat="44.17818" lon="5.65622">
        <ele>804</ele>
        <time>2022-01-27T06:01:31Z</time>
      </trkpt>
      <trkpt lat="44.17817" lon="5.65608">
        <ele>808</ele>
        <time>2022-01-27T06:01:31Z</time>
      </trkpt>
      <trkpt lat="44.17824" lon="5.65616">
        <ele>811</ele>
        <time>2022-01-27T06:01:31Z</time>
      </trkpt>
      <trkpt lat="44.17824" lon="5.65616">
        <ele>825</ele>
        <time>2022-01-27T06:01:31Z</time>
      </trkpt>
      <trkpt lat="44.17817" lon="5.65606">
        <ele>825</ele>
        <time>2022-01-27T06:01:31Z</time>
      </trkpt>
      <trkpt lat="44.17821" lon="5.65482">
        <ele>825</ele>
        <time>2022-01-27T06:01:31Z</time>
      </trkpt>
      <trkpt lat="44.17842" lon="5.65403">
        <ele>826</ele>
        <time>2022-01-27T06:01:31Z</time>
      </trkpt>
      <trkpt lat="44.17875" lon="5.65327">
        <ele>831</ele>
        <time>2022-01-27T06:01:31Z</time>
      </trkpt>
      <trkpt lat="44.17895" lon="5.65245">
        <ele>837</ele>
        <time>2022-01-27T06:01:31Z</time>
      </trkpt>
      <trkpt lat="44.17904" lon="5.65228">
        <ele>843</ele>
        <time>2022-01-27T06:01:31Z</time>
      </trkpt>
      <trkpt lat="44.17919" lon="5.65209">
        <ele>847</ele>
        <time>2022-01-27T06:01:31Z</time>
      </trkpt>
      <trkpt lat="44.17937" lon="5.65157">
        <ele>852</ele>
        <time>2022-01-27T06:01:31Z</time>
      </trkpt>
      <trkpt lat="44.17951" lon="5.65136">
        <ele>855</ele>
        <time>2022-01-27T06:01:31Z</time>
      </trkpt>
      <trkpt lat="44.17962" lon="5.65023">
        <ele>856</ele>
        <time>2022-01-27T06:01:31Z</time>
      </trkpt>
      <trkpt lat="44.17986" lon="5.64989">
        <ele>858</ele>
        <time>2022-01-27T06:01:31Z</time>
      </trkpt>
      <trkpt lat="44.17994" lon="5.64981">
        <ele>859</ele>
        <time>2022-01-27T06:01:31Z</time>
      </trkpt>
      <trkpt lat="44.17998" lon="5.64972">
        <ele>859</ele>
        <time>2022-01-27T06:01:31Z</time>
      </trkpt>
      <trkpt lat="44.18012" lon="5.64907">
        <ele>860</ele>
        <time>2022-01-27T06:01:31Z</time>
      </trkpt>
      <trkpt lat="44.18015" lon="5.6485">
        <ele>861</ele>
        <time>2022-01-27T06:01:31Z</time>
      </trkpt>
      <trkpt lat="44.18026" lon="5.64834">
        <ele>861</ele>
        <time>2022-01-27T06:01:31Z</time>
      </trkpt>
      <trkpt lat="44.18039" lon="5.6482">
        <ele>861</ele>
        <time>2022-01-27T06:01:31Z</time>
      </trkpt>
      <trkpt lat="44.18054" lon="5.64738">
        <ele>863</ele>
        <time>2022-01-27T06:01:31Z</time>
      </trkpt>
      <trkpt lat="44.18067" lon="5.64718">
        <ele>865</ele>
        <time>2022-01-27T06:01:31Z</time>
      </trkpt>
      <trkpt lat="44.18078" lon="5.64713">
        <ele>867</ele>
        <time>2022-01-27T06:01:31Z</time>
      </trkpt>
      <trkpt lat="44.18085" lon="5.64718">
        <ele>869</ele>
        <time>2022-01-27T06:01:31Z</time>
      </trkpt>
      <trkpt lat="44.18085" lon="5.64718">
        <ele>881</ele>
        <time>2022-01-27T06:01:31Z</time>
      </trkpt>
      <trkpt lat="44.18093" lon="5.64733">
        <ele>881</ele>
        <time>2022-01-27T06:01:31Z</time>
      </trkpt>
      <trkpt lat="44.18105" lon="5.64732">
        <ele>883</ele>
        <time>2022-01-27T06:01:31Z</time>
      </trkpt>
      <trkpt lat="44.18105" lon="5.64747">
        <ele>884</ele>
        <time>2022-01-27T06:01:31Z</time>
      </trkpt>
      <trkpt lat="44.18118" lon="5.64772">
        <ele>885</ele>
        <time>2022-01-27T06:01:31Z</time>
      </trkpt>
      <trkpt lat="44.18129" lon="5.64793">
        <ele>888</ele>
        <time>2022-01-27T06:01:31Z</time>
      </trkpt>
      <trkpt lat="44.18134" lon="5.64814">
        <ele>890</ele>
        <time>2022-01-27T06:01:31Z</time>
      </trkpt>
      <trkpt lat="44.18143" lon="5.64838">
        <ele>893</ele>
        <time>2022-01-27T06:01:31Z</time>
      </trkpt>
      <trkpt lat="44.1815" lon="5.64848">
        <ele>896</ele>
        <time>2022-01-27T06:01:31Z</time>
      </trkpt>
      <trkpt lat="44.18145" lon="5.64863">
        <ele>898</ele>
        <time>2022-01-27T06:01:31Z</time>
      </trkpt>
      <trkpt lat="44.18144" lon="5.64877">
        <ele>900</ele>
        <time>2022-01-27T06:01:31Z</time>
      </trkpt>
      <trkpt lat="44.18147" lon="5.64897">
        <ele>903</ele>
        <time>2022-01-27T06:01:31Z</time>
      </trkpt>
      <trkpt lat="44.18141" lon="5.64912">
        <ele>905</ele>
        <time>2022-01-27T06:01:31Z</time>
      </trkpt>
      <trkpt lat="44.18139" lon="5.64928">
        <ele>907</ele>
        <time>2022-01-27T06:01:31Z</time>
      </trkpt>
      <trkpt lat="44.18141" lon="5.64948">
        <ele>909</ele>
        <time>2022-01-27T06:01:31Z</time>
      </trkpt>
      <trkpt lat="44.18158" lon="5.64995">
        <ele>912</ele>
        <time>2022-01-27T06:01:31Z</time>
      </trkpt>
      <trkpt lat="44.18176" lon="5.65022">
        <ele>915</ele>
        <time>2022-01-27T06:01:31Z</time>
      </trkpt>
      <trkpt lat="44.18184" lon="5.65063">
        <ele>920</ele>
        <time>2022-01-27T06:01:31Z</time>
      </trkpt>
      <trkpt lat="44.18182" lon="5.65099">
        <ele>924</ele>
        <time>2022-01-27T06:01:31Z</time>
      </trkpt>
      <trkpt lat="44.18179" lon="5.6511">
        <ele>927</ele>
        <time>2022-01-27T06:01:31Z</time>
      </trkpt>
      <trkpt lat="44.18171" lon="5.65131">
        <ele>930</ele>
        <time>2022-01-27T06:01:31Z</time>
      </trkpt>
      <trkpt lat="44.18169" lon="5.65144">
        <ele>932</ele>
        <time>2022-01-27T06:01:31Z</time>
      </trkpt>
      <trkpt lat="44.18177" lon="5.65179">
        <ele>935</ele>
        <time>2022-01-27T06:01:31Z</time>
      </trkpt>
      <trkpt lat="44.18178" lon="5.6519">
        <ele>937</ele>
        <time>2022-01-27T06:01:31Z</time>
      </trkpt>
      <trkpt lat="44.18187" lon="5.65214">
        <ele>939</ele>
        <time>2022-01-27T06:01:31Z</time>
      </trkpt>
      <trkpt lat="44.18193" lon="5.65223">
        <ele>942</ele>
        <time>2022-01-27T06:01:31Z</time>
      </trkpt>
      <trkpt lat="44.18203" lon="5.65227">
        <ele>944</ele>
        <time>2022-01-27T06:01:31Z</time>
      </trkpt>
      <trkpt lat="44.18223" lon="5.65224">
        <ele>947</ele>
        <time>2022-01-27T06:01:31Z</time>
      </trkpt>
      <trkpt lat="44.1823" lon="5.65247">
        <ele>950</ele>
        <time>2022-01-27T06:01:31Z</time>
      </trkpt>
      <trkpt lat="44.18235" lon="5.65256">
        <ele>953</ele>
        <time>2022-01-27T06:01:31Z</time>
      </trkpt>
      <trkpt lat="44.18244" lon="5.65263">
        <ele>956</ele>
        <time>2022-01-27T06:01:31Z</time>
      </trkpt>
      <trkpt lat="44.18238" lon="5.65282">
        <ele>959</ele>
        <time>2022-01-27T06:01:31Z</time>
      </trkpt>
      <trkpt lat="44.18239" lon="5.65296">
        <ele>962</ele>
        <time>2022-01-27T06:01:31Z</time>
      </trkpt>
      <trkpt lat="44.18253" lon="5.65329">
        <ele>965</ele>
        <time>2022-01-27T06:01:31Z</time>
      </trkpt>
      <trkpt lat="44.18281" lon="5.65372">
        <ele>970</ele>
        <time>2022-01-27T06:01:31Z</time>
      </trkpt>
      <trkpt lat="44.1829" lon="5.65398">
        <ele>974</ele>
        <time>2022-01-27T06:01:31Z</time>
      </trkpt>
      <trkpt lat="44.18298" lon="5.65435">
        <ele>979</ele>
        <time>2022-01-27T06:01:31Z</time>
      </trkpt>
      <trkpt lat="44.18306" lon="5.65454">
        <ele>982</ele>
        <time>2022-01-27T06:01:31Z</time>
      </trkpt>
      <trkpt lat="44.18309" lon="5.65471">
        <ele>985</ele>
        <time>2022-01-27T06:01:31Z</time>
      </trkpt>
      <trkpt lat="44.18315" lon="5.65485">
        <ele>988</ele>
        <time>2022-01-27T06:01:31Z</time>
      </trkpt>
      <trkpt lat="44.18323" lon="5.65489">
        <ele>990</ele>
        <time>2022-01-27T06:01:31Z</time>
      </trkpt>
      <trkpt lat="44.18329" lon="5.65498">
        <ele>993</ele>
        <time>2022-01-27T06:01:31Z</time>
      </trkpt>
      <trkpt lat="44.18329" lon="5.65514">
        <ele>995</ele>
        <time>2022-01-27T06:01:31Z</time>
      </trkpt>
      <trkpt lat="44.18335" lon="5.65526">
        <ele>997</ele>
        <time>2022-01-27T06:01:31Z</time>
      </trkpt>
      <trkpt lat="44.18338" lon="5.65594">
        <ele>998</ele>
        <time>2022-01-27T06:01:31Z</time>
      </trkpt>
      <trkpt lat="44.18332" lon="5.65641">
        <ele>999</ele>
        <time>2022-01-27T06:01:31Z</time>
      </trkpt>
      <trkpt lat="44.18328" lon="5.65666">
        <ele>1000</ele>
        <time>2022-01-27T06:01:31Z</time>
      </trkpt>
      <trkpt lat="44.18328" lon="5.65666">
        <ele>1002</ele>
        <time>2022-01-27T06:01:31Z</time>
      </trkpt>
      <trkpt lat="44.18324" lon="5.65679">
        <ele>1002</ele>
        <time>2022-01-27T06:01:31Z</time>
      </trkpt>
      <trkpt lat="44.18321" lon="5.65716">
        <ele>1001</ele>
        <time>2022-01-27T06:01:31Z</time>
      </trkpt>
      <trkpt lat="44.18341" lon="5.6575">
        <ele>1001</ele>
        <time>2022-01-27T06:01:31Z</time>
      </trkpt>
      <trkpt lat="44.18367" lon="5.65781">
        <ele>1003</ele>
        <time>2022-01-27T06:01:31Z</time>
      </trkpt>
      <trkpt lat="44.18387" lon="5.65799">
        <ele>1006</ele>
        <time>2022-01-27T06:01:31Z</time>
      </trkpt>
      <trkpt lat="44.18395" lon="5.65799">
        <ele>1009</ele>
        <time>2022-01-27T06:01:31Z</time>
      </trkpt>
      <trkpt lat="44.18408" lon="5.65789">
        <ele>1012</ele>
        <time>2022-01-27T06:01:31Z</time>
      </trkpt>
      <trkpt lat="44.18418" lon="5.65788">
        <ele>1033</ele>
        <time>2022-01-27T06:01:31Z</time>
      </trkpt>
      <trkpt lat="44.18422" lon="5.65799">
        <ele>1033</ele>
        <time>2022-01-27T06:01:31Z</time>
      </trkpt>
      <trkpt lat="44.18439" lon="5.65808">
        <ele>1033</ele>
        <time>2022-01-27T06:01:31Z</time>
      </trkpt>
      <trkpt lat="44.18461" lon="5.65783">
        <ele>1035</ele>
        <time>2022-01-27T06:01:31Z</time>
      </trkpt>
      <trkpt lat="44.18463" lon="5.6577">
        <ele>1036</ele>
        <time>2022-01-27T06:01:31Z</time>
      </trkpt>
      <trkpt lat="44.18474" lon="5.65747">
        <ele>1038</ele>
        <time>2022-01-27T06:01:31Z</time>
      </trkpt>
      <trkpt lat="44.18475" lon="5.65732">
        <ele>1039</ele>
        <time>2022-01-27T06:01:31Z</time>
      </trkpt>
      <trkpt lat="44.18485" lon="5.65712">
        <ele>1040</ele>
        <time>2022-01-27T06:01:31Z</time>
      </trkpt>
      <trkpt lat="44.18496" lon="5.65682">
        <ele>1043</ele>
        <time>2022-01-27T06:01:31Z</time>
      </trkpt>
      <trkpt lat="44.18504" lon="5.65678">
        <ele>1045</ele>
        <time>2022-01-27T06:01:31Z</time>
      </trkpt>
      <trkpt lat="44.18526" lon="5.65691">
        <ele>1048</ele>
        <time>2022-01-27T06:01:31Z</time>
      </trkpt>
      <trkpt lat="44.18554" lon="5.6569">
        <ele>1052</ele>
        <time>2022-01-27T06:01:31Z</time>
      </trkpt>
      <trkpt lat="44.18568" lon="5.657">
        <ele>1056</ele>
        <time>2022-01-27T06:01:31Z</time>
      </trkpt>
      <trkpt lat="44.18573" lon="5.65711">
        <ele>1060</ele>
        <time>2022-01-27T06:01:31Z</time>
      </trkpt>
      <trkpt lat="44.18581" lon="5.65772">
        <ele>1064</ele>
        <time>2022-01-27T06:01:31Z</time>
      </trkpt>
      <trkpt lat="44.18581" lon="5.65787">
        <ele>1067</ele>
        <time>2022-01-27T06:01:31Z</time>
      </trkpt>
      <trkpt lat="44.18584" lon="5.65801">
        <ele>1070</ele>
        <time>2022-01-27T06:01:31Z</time>
      </trkpt>
      <trkpt lat="44.18581" lon="5.65893">
        <ele>1079</ele>
        <time>2022-01-27T06:01:31Z</time>
      </trkpt>
      <trkpt lat="44.18582" lon="5.65904">
        <ele>1085</ele>
        <time>2022-01-27T06:01:31Z</time>
      </trkpt>
      <trkpt lat="44.18606" lon="5.65905">
        <ele>1091</ele>
        <time>2022-01-27T06:01:31Z</time>
      </trkpt>
      <trkpt lat="44.18617" lon="5.65909">
        <ele>1097</ele>
        <time>2022-01-27T06:01:31Z</time>
      </trkpt>
      <trkpt lat="44.18626" lon="5.65918">
        <ele>1102</ele>
        <time>2022-01-27T06:01:31Z</time>
      </trkpt>
      <trkpt lat="44.18635" lon="5.65916">
        <ele>1106</ele>
        <time>2022-01-27T06:01:31Z</time>
      </trkpt>
      <trkpt lat="44.18656" lon="5.65885">
        <ele>1112</ele>
        <time>2022-01-27T06:01:31Z</time>
      </trkpt>
      <trkpt lat="44.1866" lon="5.65909">
        <ele>1117</ele>
        <time>2022-01-27T06:01:31Z</time>
      </trkpt>
      <trkpt lat="44.18659" lon="5.65936">
        <ele>1122</ele>
        <time>2022-01-27T06:01:31Z</time>
      </trkpt>
      <trkpt lat="44.18674" lon="5.6601">
        <ele>1127</ele>
        <time>2022-01-27T06:01:31Z</time>
      </trkpt>
      <trkpt lat="44.18681" lon="5.66025">
        <ele>1131</ele>
        <time>2022-01-27T06:01:31Z</time>
      </trkpt>
      <trkpt lat="44.18689" lon="5.66033">
        <ele>1134</ele>
        <time>2022-01-27T06:01:31Z</time>
      </trkpt>
      <trkpt lat="44.18706" lon="5.66044">
        <ele>1138</ele>
        <time>2022-01-27T06:01:31Z</time>
      </trkpt>
      <trkpt lat="44.18728" lon="5.6607">
        <ele>1142</ele>
        <time>2022-01-27T06:01:31Z</time>
      </trkpt>
      <trkpt lat="44.18734" lon="5.66081">
        <ele>1145</ele>
        <time>2022-01-27T06:01:31Z</time>
      </trkpt>
      <trkpt lat="44.18744" lon="5.66081">
        <ele>1148</ele>
        <time>2022-01-27T06:01:31Z</time>
      </trkpt>
      <trkpt lat="44.18792" lon="5.66071">
        <ele>1157</ele>
        <time>2022-01-27T06:01:31Z</time>
      </trkpt>
      <trkpt lat="44.188" lon="5.66075">
        <ele>1164</ele>
        <time>2022-01-27T06:01:31Z</time>
      </trkpt>
      <trkpt lat="44.188" lon="5.66075">
        <ele>1196</ele>
        <time>2022-01-27T06:01:31Z</time>
      </trkpt>
      <trkpt lat="44.18808" lon="5.66085">
        <ele>1197</ele>
        <time>2022-01-27T06:01:31Z</time>
      </trkpt>
      <trkpt lat="44.18816" lon="5.66088">
        <ele>1198</ele>
        <time>2022-01-27T06:01:31Z</time>
      </trkpt>
      <trkpt lat="44.18818" lon="5.66105">
        <ele>1199</ele>
        <time>2022-01-27T06:01:31Z</time>
      </trkpt>
      <trkpt lat="44.18817" lon="5.66186">
        <ele>1205</ele>
        <time>2022-01-27T06:01:31Z</time>
      </trkpt>
      <trkpt lat="44.18823" lon="5.66202">
        <ele>1210</ele>
        <time>2022-01-27T06:01:31Z</time>
      </trkpt>
      <trkpt lat="44.1882" lon="5.66221">
        <ele>1215</ele>
        <time>2022-01-27T06:01:31Z</time>
      </trkpt>
      <trkpt lat="44.18803" lon="5.66272">
        <ele>1221</ele>
        <time>2022-01-27T06:01:31Z</time>
      </trkpt>
      <trkpt lat="44.18796" lon="5.66309">
        <ele>1226</ele>
        <time>2022-01-27T06:01:31Z</time>
      </trkpt>
      <trkpt lat="44.18834" lon="5.66298">
        <ele>1232</ele>
        <time>2022-01-27T06:01:31Z</time>
      </trkpt>
      <trkpt lat="44.18854" lon="5.66292">
        <ele>1238</ele>
        <time>2022-01-27T06:01:31Z</time>
      </trkpt>
      <trkpt lat="44.18882" lon="5.6628">
        <ele>1245</ele>
        <time>2022-01-27T06:01:31Z</time>
      </trkpt>
      <trkpt lat="44.18897" lon="5.66262">
        <ele>1251</ele>
        <time>2022-01-27T06:01:31Z</time>
      </trkpt>
      <trkpt lat="44.18906" lon="5.66249">
        <ele>1257</ele>
        <time>2022-01-27T06:01:31Z</time>
      </trkpt>
      <trkpt lat="44.18987" lon="5.66156">
        <ele>1267</ele>
        <time>2022-01-27T06:01:31Z</time>
      </trkpt>
      <trkpt lat="44.18941" lon="5.66208">
        <ele>1274</ele>
        <time>2022-01-27T06:01:31Z</time>
      </trkpt>
      <trkpt lat="44.18913" lon="5.66236">
        <ele>1277</ele>
        <time>2022-01-27T06:01:31Z</time>
      </trkpt>
      <trkpt lat="44.18886" lon="5.66278">
        <ele>1277</ele>
        <time>2022-01-27T06:01:31Z</time>
      </trkpt>
      <trkpt lat="44.18867" lon="5.66282">
        <ele>1274</ele>
        <time>2022-01-27T06:01:31Z</time>
      </trkpt>
      <trkpt lat="44.18832" lon="5.66301">
        <ele>1270</ele>
        <time>2022-01-27T06:01:31Z</time>
      </trkpt>
      <trkpt lat="44.18811" lon="5.66359">
        <ele>1265</ele>
        <time>2022-01-27T06:01:31Z</time>
      </trkpt>
      <trkpt lat="44.18818" lon="5.66388">
        <ele>1262</ele>
        <time>2022-01-27T06:01:31Z</time>
      </trkpt>
      <trkpt lat="44.18817" lon="5.66431">
        <ele>1260</ele>
        <time>2022-01-27T06:01:31Z</time>
      </trkpt>
      <trkpt lat="44.18817" lon="5.66431">
        <ele>1252</ele>
        <time>2022-01-27T06:01:31Z</time>
      </trkpt>
      <trkpt lat="44.18815" lon="5.66473">
        <ele>1252</ele>
        <time>2022-01-27T06:01:31Z</time>
      </trkpt>
      <trkpt lat="44.18823" lon="5.66517">
        <ele>1252</ele>
        <time>2022-01-27T06:01:31Z</time>
      </trkpt>
      <trkpt lat="44.18825" lon="5.66573">
        <ele>1251</ele>
        <time>2022-01-27T06:01:31Z</time>
      </trkpt>
      <trkpt lat="44.18812" lon="5.66636">
        <ele>1249</ele>
        <time>2022-01-27T06:01:31Z</time>
      </trkpt>
      <trkpt lat="44.18802" lon="5.66662">
        <ele>1248</ele>
        <time>2022-01-27T06:01:31Z</time>
      </trkpt>
      <trkpt lat="44.18784" lon="5.66722">
        <ele>1247</ele>
        <time>2022-01-27T06:01:31Z</time>
      </trkpt>
      <trkpt lat="44.18774" lon="5.66741">
        <ele>1246</ele>
        <time>2022-01-27T06:01:31Z</time>
      </trkpt>
      <trkpt lat="44.18765" lon="5.66767">
        <ele>1246</ele>
        <time>2022-01-27T06:01:31Z</time>
      </trkpt>
      <trkpt lat="44.18755" lon="5.66793">
        <ele>1245</ele>
        <time>2022-01-27T06:01:31Z</time>
      </trkpt>
      <trkpt lat="44.1874" lon="5.66826">
        <ele>1245</ele>
        <time>2022-01-27T06:01:31Z</time>
      </trkpt>
      <trkpt lat="44.18726" lon="5.66912">
        <ele>1241</ele>
        <time>2022-01-27T06:01:31Z</time>
      </trkpt>
      <trkpt lat="44.18723" lon="5.66938">
        <ele>1239</ele>
        <time>2022-01-27T06:01:31Z</time>
      </trkpt>
      <trkpt lat="44.18717" lon="5.66948">
        <ele>1236</ele>
        <time>2022-01-27T06:01:31Z</time>
      </trkpt>
      <trkpt lat="44.18711" lon="5.6695">
        <ele>1234</ele>
        <time>2022-01-27T06:01:31Z</time>
      </trkpt>
      <trkpt lat="44.18705" lon="5.66959">
        <ele>1232</ele>
        <time>2022-01-27T06:01:31Z</time>
      </trkpt>
      <trkpt lat="44.18702" lon="5.66968">
        <ele>1230</ele>
        <time>2022-01-27T06:01:31Z</time>
      </trkpt>
      <trkpt lat="44.18696" lon="5.66971">
        <ele>1229</ele>
        <time>2022-01-27T06:01:31Z</time>
      </trkpt>
      <trkpt lat="44.18684" lon="5.66981">
        <ele>1227</ele>
        <time>2022-01-27T06:01:31Z</time>
      </trkpt>
      <trkpt lat="44.18676" lon="5.66982">
        <ele>1225</ele>
        <time>2022-01-27T06:01:31Z</time>
      </trkpt>
      <trkpt lat="44.18668" lon="5.66975">
        <ele>1224</ele>
        <time>2022-01-27T06:01:31Z</time>
      </trkpt>
      <trkpt lat="44.18652" lon="5.66968">
        <ele>1222</ele>
        <time>2022-01-27T06:01:31Z</time>
      </trkpt>
      <trkpt lat="44.18629" lon="5.66966">
        <ele>1220</ele>
        <time>2022-01-27T06:01:31Z</time>
      </trkpt>
      <trkpt lat="44.18622" lon="5.66973">
        <ele>1218</ele>
        <time>2022-01-27T06:01:31Z</time>
      </trkpt>
      <trkpt lat="44.18615" lon="5.66981">
        <ele>1216</ele>
        <time>2022-01-27T06:01:31Z</time>
      </trkpt>
      <trkpt lat="44.1861" lon="5.67001">
        <ele>1215</ele>
        <time>2022-01-27T06:01:31Z</time>
      </trkpt>
      <trkpt lat="44.18588" lon="5.67028">
        <ele>1212</ele>
        <time>2022-01-27T06:01:31Z</time>
      </trkpt>
      <trkpt lat="44.18579" lon="5.6704">
        <ele>1210</ele>
        <time>2022-01-27T06:01:31Z</time>
      </trkpt>
      <trkpt lat="44.18578" lon="5.67048">
        <ele>1208</ele>
        <time>2022-01-27T06:01:31Z</time>
      </trkpt>
      <trkpt lat="44.18584" lon="5.67075">
        <ele>1206</ele>
        <time>2022-01-27T06:01:31Z</time>
      </trkpt>
      <trkpt lat="44.18585" lon="5.67099">
        <ele>1205</ele>
        <time>2022-01-27T06:01:31Z</time>
      </trkpt>
      <trkpt lat="44.18589" lon="5.67128">
        <ele>1203</ele>
        <time>2022-01-27T06:01:31Z</time>
      </trkpt>
      <trkpt lat="44.18595" lon="5.67198">
        <ele>1204</ele>
        <time>2022-01-27T06:01:31Z</time>
      </trkpt>
      <trkpt lat="44.18593" lon="5.67211">
        <ele>1203</ele>
        <time>2022-01-27T06:01:31Z</time>
      </trkpt>
      <trkpt lat="44.18586" lon="5.67205">
        <ele>1202</ele>
        <time>2022-01-27T06:01:31Z</time>
      </trkpt>
      <trkpt lat="44.18581" lon="5.67191">
        <ele>1200</ele>
        <time>2022-01-27T06:01:31Z</time>
      </trkpt>
      <trkpt lat="44.18581" lon="5.67178">
        <ele>1198</ele>
        <time>2022-01-27T06:01:31Z</time>
      </trkpt>
      <trkpt lat="44.18572" lon="5.67179">
        <ele>1196</ele>
        <time>2022-01-27T06:01:31Z</time>
      </trkpt>
      <trkpt lat="44.18564" lon="5.67186">
        <ele>1194</ele>
        <time>2022-01-27T06:01:31Z</time>
      </trkpt>
      <trkpt lat="44.18557" lon="5.6718">
        <ele>1191</ele>
        <time>2022-01-27T06:01:31Z</time>
      </trkpt>
      <trkpt lat="44.18554" lon="5.67164">
        <ele>1188</ele>
        <time>2022-01-27T06:01:31Z</time>
      </trkpt>
      <trkpt lat="44.18555" lon="5.6713">
        <ele>1185</ele>
        <time>2022-01-27T06:01:31Z</time>
      </trkpt>
      <trkpt lat="44.18543" lon="5.67146">
        <ele>1162</ele>
        <time>2022-01-27T06:01:31Z</time>
      </trkpt>
      <trkpt lat="44.18496" lon="5.67215">
        <ele>1158</ele>
        <time>2022-01-27T06:01:31Z</time>
      </trkpt>
      <trkpt lat="44.18491" lon="5.67228">
        <ele>1154</ele>
        <time>2022-01-27T06:01:31Z</time>
      </trkpt>
      <trkpt lat="44.18479" lon="5.67248">
        <ele>1150</ele>
        <time>2022-01-27T06:01:31Z</time>
      </trkpt>
      <trkpt lat="44.1847" lon="5.6727">
        <ele>1147</ele>
        <time>2022-01-27T06:01:31Z</time>
      </trkpt>
      <trkpt lat="44.18461" lon="5.6727">
        <ele>1143</ele>
        <time>2022-01-27T06:01:31Z</time>
      </trkpt>
      <trkpt lat="44.18455" lon="5.67257">
        <ele>1140</ele>
        <time>2022-01-27T06:01:31Z</time>
      </trkpt>
      <trkpt lat="44.18446" lon="5.67273">
        <ele>1136</ele>
        <time>2022-01-27T06:01:31Z</time>
      </trkpt>
      <trkpt lat="44.18433" lon="5.67304">
        <ele>1132</ele>
        <time>2022-01-27T06:01:31Z</time>
      </trkpt>
      <trkpt lat="44.18434" lon="5.6731">
        <ele>1128</ele>
        <time>2022-01-27T06:01:31Z</time>
      </trkpt>
      <trkpt lat="44.18435" lon="5.67327">
        <ele>1125</ele>
        <time>2022-01-27T06:01:31Z</time>
      </trkpt>
      <trkpt lat="44.18429" lon="5.67334">
        <ele>1122</ele>
        <time>2022-01-27T06:01:31Z</time>
      </trkpt>
      <trkpt lat="44.18427" lon="5.67344">
        <ele>1119</ele>
        <time>2022-01-27T06:01:31Z</time>
      </trkpt>
      <trkpt lat="44.18431" lon="5.67353">
        <ele>1117</ele>
        <time>2022-01-27T06:01:31Z</time>
      </trkpt>
      <trkpt lat="44.18433" lon="5.67365">
        <ele>1115</ele>
        <time>2022-01-27T06:01:31Z</time>
      </trkpt>
      <trkpt lat="44.18419" lon="5.67401">
        <ele>1111</ele>
        <time>2022-01-27T06:01:31Z</time>
      </trkpt>
      <trkpt lat="44.18409" lon="5.67458">
        <ele>1107</ele>
        <time>2022-01-27T06:01:31Z</time>
      </trkpt>
      <trkpt lat="44.18403" lon="5.67512">
        <ele>1102</ele>
        <time>2022-01-27T06:01:31Z</time>
      </trkpt>
      <trkpt lat="44.18401" lon="5.67567">
        <ele>1094</ele>
        <time>2022-01-27T06:01:31Z</time>
      </trkpt>
      <trkpt lat="44.18401" lon="5.67578">
        <ele>1089</ele>
        <time>2022-01-27T06:01:31Z</time>
      </trkpt>
      <trkpt lat="44.18407" lon="5.67587">
        <ele>1086</ele>
        <time>2022-01-27T06:01:31Z</time>
      </trkpt>
      <trkpt lat="44.18413" lon="5.67598">
        <ele>1082</ele>
        <time>2022-01-27T06:01:31Z</time>
      </trkpt>
      <trkpt lat="44.18413" lon="5.67615">
        <ele>1079</ele>
        <time>2022-01-27T06:01:31Z</time>
      </trkpt>
      <trkpt lat="44.18411" lon="5.67626">
        <ele>1076</ele>
        <time>2022-01-27T06:01:31Z</time>
      </trkpt>
      <trkpt lat="44.18407" lon="5.67637">
        <ele>1074</ele>
        <time>2022-01-27T06:01:31Z</time>
      </trkpt>
      <trkpt lat="44.18393" lon="5.67679">
        <ele>1070</ele>
        <time>2022-01-27T06:01:31Z</time>
      </trkpt>
      <trkpt lat="44.18372" lon="5.67756">
        <ele>1062</ele>
        <time>2022-01-27T06:01:31Z</time>
      </trkpt>
      <trkpt lat="44.18362" lon="5.67768">
        <ele>1055</ele>
        <time>2022-01-27T06:01:31Z</time>
      </trkpt>
      <trkpt lat="44.18358" lon="5.67761">
        <ele>1050</ele>
        <time>2022-01-27T06:01:31Z</time>
      </trkpt>
      <trkpt lat="44.18337" lon="5.67783">
        <ele>1043</ele>
        <time>2022-01-27T06:01:31Z</time>
      </trkpt>
      <trkpt lat="44.18331" lon="5.6779">
        <ele>1037</ele>
        <time>2022-01-27T06:01:31Z</time>
      </trkpt>
      <trkpt lat="44.18305" lon="5.67813">
        <ele>1030</ele>
        <time>2022-01-27T06:01:31Z</time>
      </trkpt>
      <trkpt lat="44.183" lon="5.67825">
        <ele>1024</ele>
        <time>2022-01-27T06:01:31Z</time>
      </trkpt>
      <trkpt lat="44.18303" lon="5.67835">
        <ele>1019</ele>
        <time>2022-01-27T06:01:31Z</time>
      </trkpt>
      <trkpt lat="44.183" lon="5.67847">
        <ele>1016</ele>
        <time>2022-01-27T06:01:31Z</time>
      </trkpt>
      <trkpt lat="44.1829" lon="5.67851">
        <ele>1012</ele>
        <time>2022-01-27T06:01:31Z</time>
      </trkpt>
      <trkpt lat="44.18281" lon="5.67857">
        <ele>1009</ele>
        <time>2022-01-27T06:01:31Z</time>
      </trkpt>
      <trkpt lat="44.18228" lon="5.67964">
        <ele>1000</ele>
        <time>2022-01-27T06:01:31Z</time>
      </trkpt>
      <trkpt lat="44.18228" lon="5.67964">
        <ele>970</ele>
        <time>2022-01-27T06:01:31Z</time>
      </trkpt>
      <trkpt lat="44.18221" lon="5.67953">
        <ele>970</ele>
        <time>2022-01-27T06:01:31Z</time>
      </trkpt>
      <trkpt lat="44.18204" lon="5.6787">
        <ele>965</ele>
        <time>2022-01-27T06:01:31Z</time>
      </trkpt>
      <trkpt lat="44.18188" lon="5.67826">
        <ele>960</ele>
        <time>2022-01-27T06:01:31Z</time>
      </trkpt>
      <trkpt lat="44.18176" lon="5.67847">
        <ele>955</ele>
        <time>2022-01-27T06:01:31Z</time>
      </trkpt>
      <trkpt lat="44.18097" lon="5.67912">
        <ele>943</ele>
        <time>2022-01-27T06:01:31Z</time>
      </trkpt>
      <trkpt lat="44.18089" lon="5.67929">
        <ele>935</ele>
        <time>2022-01-27T06:01:31Z</time>
      </trkpt>
      <trkpt lat="44.1808" lon="5.6794">
        <ele>929</ele>
        <time>2022-01-27T06:01:31Z</time>
      </trkpt>
      <trkpt lat="44.18073" lon="5.67944">
        <ele>924</ele>
        <time>2022-01-27T06:01:31Z</time>
      </trkpt>
      <trkpt lat="44.18067" lon="5.67936">
        <ele>920</ele>
        <time>2022-01-27T06:01:31Z</time>
      </trkpt>
      <trkpt lat="44.18062" lon="5.67924">
        <ele>916</ele>
        <time>2022-01-27T06:01:31Z</time>
      </trkpt>
      <trkpt lat="44.18052" lon="5.67923">
        <ele>913</ele>
        <time>2022-01-27T06:01:31Z</time>
      </trkpt>
      <trkpt lat="44.18043" lon="5.67916">
        <ele>909</ele>
        <time>2022-01-27T06:01:31Z</time>
      </trkpt>
      <trkpt lat="44.1798" lon="5.67914">
        <ele>902</ele>
        <time>2022-01-27T06:01:31Z</time>
      </trkpt>
      <trkpt lat="44.17955" lon="5.67922">
        <ele>895</ele>
        <time>2022-01-27T06:01:31Z</time>
      </trkpt>
      <trkpt lat="44.17955" lon="5.67922">
        <ele>867</ele>
        <time>2022-01-27T06:01:31Z</time>
      </trkpt>
      <trkpt lat="44.17953" lon="5.67912">
        <ele>867</ele>
        <time>2022-01-27T06:01:31Z</time>
      </trkpt>
      <trkpt lat="44.18005" lon="5.67744">
        <ele>867</ele>
        <time>2022-01-27T06:01:31Z</time>
      </trkpt>
      <trkpt lat="44.1801" lon="5.67735">
        <ele>867</ele>
        <time>2022-01-27T06:01:31Z</time>
      </trkpt>
      <trkpt lat="44.18025" lon="5.67723">
        <ele>868</ele>
        <time>2022-01-27T06:01:31Z</time>
      </trkpt>
      <trkpt lat="44.18026" lon="5.67709">
        <ele>868</ele>
        <time>2022-01-27T06:01:31Z</time>
      </trkpt>
      <trkpt lat="44.1802" lon="5.677">
        <ele>868</ele>
        <time>2022-01-27T06:01:31Z</time>
      </trkpt>
      <trkpt lat="44.18018" lon="5.67675">
        <ele>868</ele>
        <time>2022-01-27T06:01:31Z</time>
      </trkpt>
      <trkpt lat="44.18023" lon="5.67587">
        <ele>868</ele>
        <time>2022-01-27T06:01:31Z</time>
      </trkpt>
      <trkpt lat="44.18027" lon="5.67573">
        <ele>869</ele>
        <time>2022-01-27T06:01:31Z</time>
      </trkpt>
      <trkpt lat="44.18036" lon="5.6755">
        <ele>869</ele>
        <time>2022-01-27T06:01:31Z</time>
      </trkpt>
      <trkpt lat="44.18038" lon="5.6754">
        <ele>869</ele>
        <time>2022-01-27T06:01:31Z</time>
      </trkpt>
      <trkpt lat="44.18032" lon="5.67277">
        <ele>867</ele>
        <time>2022-01-27T06:01:31Z</time>
      </trkpt>
      <trkpt lat="44.18063" lon="5.67172">
        <ele>866</ele>
        <time>2022-01-27T06:01:31Z</time>
      </trkpt>
      <trkpt lat="44.18096" lon="5.67087">
        <ele>865</ele>
        <time>2022-01-27T06:01:31Z</time>
      </trkpt>
      <trkpt lat="44.18103" lon="5.67038">
        <ele>865</ele>
        <time>2022-01-27T06:01:31Z</time>
      </trkpt>
      <trkpt lat="44.18101" lon="5.67008">
        <ele>865</ele>
        <time>2022-01-27T06:01:31Z</time>
      </trkpt>
      <trkpt lat="44.18095" lon="5.66979">
        <ele>865</ele>
        <time>2022-01-27T06:01:31Z</time>
      </trkpt>
      <trkpt lat="44.18088" lon="5.66963">
        <ele>865</ele>
        <time>2022-01-27T06:01:31Z</time>
      </trkpt>
      <trkpt lat="44.18077" lon="5.66945">
        <ele>864</ele>
        <time>2022-01-27T06:01:31Z</time>
      </trkpt>
      <trkpt lat="44.18052" lon="5.66857">
        <ele>863</ele>
        <time>2022-01-27T06:01:31Z</time>
      </trkpt>
      <trkpt lat="44.18052" lon="5.66857">
        <ele>860</ele>
        <time>2022-01-27T06:01:31Z</time>
      </trkpt>
      <trkpt lat="44.18052" lon="5.66784">
        <ele>861</ele>
        <time>2022-01-27T06:01:31Z</time>
      </trkpt>
      <trkpt lat="44.18046" lon="5.66668">
        <ele>861</ele>
        <time>2022-01-27T06:01:31Z</time>
      </trkpt>
      <trkpt lat="44.18051" lon="5.66651">
        <ele>861</ele>
        <time>2022-01-27T06:01:31Z</time>
      </trkpt>
      <trkpt lat="44.18072" lon="5.66634">
        <ele>860</ele>
        <time>2022-01-27T06:01:31Z</time>
      </trkpt>
      <trkpt lat="44.18079" lon="5.66622">
        <ele>860</ele>
        <time>2022-01-27T06:01:31Z</time>
      </trkpt>
      <trkpt lat="44.18082" lon="5.66609">
        <ele>859</ele>
        <time>2022-01-27T06:01:31Z</time>
      </trkpt>
      <trkpt lat="44.18125" lon="5.66542">
        <ele>858</ele>
        <time>2022-01-27T06:01:31Z</time>
      </trkpt>
      <trkpt lat="44.18124" lon="5.66505">
        <ele>857</ele>
        <time>2022-01-27T06:01:31Z</time>
      </trkpt>
      <trkpt lat="44.18133" lon="5.66476">
        <ele>857</ele>
        <time>2022-01-27T06:01:31Z</time>
      </trkpt>
      <trkpt lat="44.18136" lon="5.66413">
        <ele>855</ele>
        <time>2022-01-27T06:01:31Z</time>
      </trkpt>
      <trkpt lat="44.18142" lon="5.66396">
        <ele>854</ele>
        <time>2022-01-27T06:01:31Z</time>
      </trkpt>
      <trkpt lat="44.18152" lon="5.66383">
        <ele>853</ele>
        <time>2022-01-27T06:01:31Z</time>
      </trkpt>
      <trkpt lat="44.18209" lon="5.66343">
        <ele>854</ele>
        <time>2022-01-27T06:01:31Z</time>
      </trkpt>
      <trkpt lat="44.18225" lon="5.66321">
        <ele>856</ele>
        <time>2022-01-27T06:01:31Z</time>
      </trkpt>
      <trkpt lat="44.18236" lon="5.663">
        <ele>859</ele>
        <time>2022-01-27T06:01:31Z</time>
      </trkpt>
      <trkpt lat="44.18239" lon="5.66285">
        <ele>861</ele>
        <time>2022-01-27T06:01:31Z</time>
      </trkpt>
      <trkpt lat="44.18241" lon="5.66264">
        <ele>863</ele>
        <time>2022-01-27T06:01:31Z</time>
      </trkpt>
      <trkpt lat="44.18242" lon="5.66254">
        <ele>864</ele>
        <time>2022-01-27T06:01:31Z</time>
      </trkpt>
      <trkpt lat="44.18239" lon="5.66244">
        <ele>866</ele>
        <time>2022-01-27T06:01:31Z</time>
      </trkpt>
      <trkpt lat="44.18222" lon="5.66218">
        <ele>868</ele>
        <time>2022-01-27T06:01:31Z</time>
      </trkpt>
      <trkpt lat="44.18192" lon="5.66146">
        <ele>874</ele>
        <time>2022-01-27T06:01:31Z</time>
      </trkpt>
      <trkpt lat="44.1819" lon="5.66135">
        <ele>878</ele>
        <time>2022-01-27T06:01:31Z</time>
      </trkpt>
      <trkpt lat="44.18168" lon="5.66098">
        <ele>882</ele>
        <time>2022-01-27T06:01:31Z</time>
      </trkpt>
      <trkpt lat="44.18116" lon="5.66058">
        <ele>885</ele>
        <time>2022-01-27T06:01:31Z</time>
      </trkpt>
      <trkpt lat="44.18105" lon="5.66054">
        <ele>887</ele>
        <time>2022-01-27T06:01:31Z</time>
      </trkpt>
      <trkpt lat="44.18092" lon="5.66045">
        <ele>891</ele>
        <time>2022-01-27T06:01:31Z</time>
      </trkpt>
      <trkpt lat="44.18087" lon="5.66036">
        <ele>891</ele>
        <time>2022-01-27T06:01:31Z</time>
      </trkpt>
      <trkpt lat="44.18079" lon="5.66031">
        <ele>890</ele>
        <time>2022-01-27T06:01:31Z</time>
      </trkpt>
      <trkpt lat="44.18079" lon="5.66031">
        <ele>889</ele>
        <time>2022-01-27T06:01:31Z</time>
      </trkpt>
      <trkpt lat="44.18062" lon="5.66024">
        <ele>888</ele>
        <time>2022-01-27T06:01:31Z</time>
      </trkpt>
      <trkpt lat="44.18051" lon="5.66028">
        <ele>886</ele>
        <time>2022-01-27T06:01:31Z</time>
      </trkpt>
      <trkpt lat="44.18043" lon="5.66023">
        <ele>885</ele>
        <time>2022-01-27T06:01:31Z</time>
      </trkpt>
      <trkpt lat="44.18033" lon="5.66009">
        <ele>883</ele>
        <time>2022-01-27T06:01:31Z</time>
      </trkpt>
      <trkpt lat="44.18028" lon="5.65997">
        <ele>882</ele>
        <time>2022-01-27T06:01:31Z</time>
      </trkpt>
      <trkpt lat="44.18029" lon="5.6596">
        <ele>881</ele>
        <time>2022-01-27T06:01:31Z</time>
      </trkpt>
      <trkpt lat="44.18047" lon="5.65864">
        <ele>881</ele>
        <time>2022-01-27T06:01:31Z</time>
      </trkpt>
      <trkpt lat="44.18046" lon="5.6584">
        <ele>880</ele>
        <time>2022-01-27T06:01:31Z</time>
      </trkpt>
      <trkpt lat="44.18041" lon="5.65827">
        <ele>879</ele>
        <time>2022-01-27T06:01:31Z</time>
      </trkpt>
      <trkpt lat="44.18022" lon="5.65806">
        <ele>878</ele>
        <time>2022-01-27T06:01:31Z</time>
      </trkpt>
      <trkpt lat="44.17976" lon="5.65786">
        <ele>873</ele>
        <time>2022-01-27T06:01:31Z</time>
      </trkpt>
      <trkpt lat="44.17968" lon="5.65772">
        <ele>870</ele>
        <time>2022-01-27T06:01:31Z</time>
      </trkpt>
      <trkpt lat="44.17928" lon="5.65728">
        <ele>865</ele>
        <time>2022-01-27T06:01:31Z</time>
      </trkpt>
      <trkpt lat="44.17916" lon="5.65721">
        <ele>862</ele>
        <time>2022-01-27T06:01:31Z</time>
      </trkpt>
      <trkpt lat="44.17904" lon="5.65727">
        <ele>859</ele>
        <time>2022-01-27T06:01:31Z</time>
      </trkpt>
      <trkpt lat="44.17896" lon="5.65723">
        <ele>856</ele>
        <time>2022-01-27T06:01:31Z</time>
      </trkpt>
      <trkpt lat="44.17886" lon="5.65704">
        <ele>854</ele>
        <time>2022-01-27T06:01:31Z</time>
      </trkpt>
      <trkpt lat="44.17863" lon="5.65682">
        <ele>850</ele>
        <time>2022-01-27T06:01:31Z</time>
      </trkpt>
      <trkpt lat="44.17817" lon="5.65606">
        <ele>844</ele>
        <time>2022-01-27T06:01:31Z</time>
      </trkpt>
      <trkpt lat="44.17817" lon="5.65657">
        <ele>839</ele>
        <time>2022-01-27T06:01:31Z</time>
      </trkpt>
      <trkpt lat="44.17815" lon="5.65679">
        <ele>835</ele>
        <time>2022-01-27T06:01:31Z</time>
      </trkpt>
      <trkpt lat="44.1781" lon="5.65692">
        <ele>832</ele>
        <time>2022-01-27T06:01:31Z</time>
      </trkpt>
      <trkpt lat="44.17809" lon="5.65725">
        <ele>829</ele>
        <time>2022-01-27T06:01:31Z</time>
      </trkpt>
      <trkpt lat="44.17791" lon="5.65776">
        <ele>825</ele>
        <time>2022-01-27T06:01:31Z</time>
      </trkpt>
      <trkpt lat="44.17768" lon="5.65812">
        <ele>819</ele>
        <time>2022-01-27T06:01:31Z</time>
      </trkpt>
      <trkpt lat="44.17761" lon="5.65817">
        <ele>815</ele>
        <time>2022-01-27T06:01:31Z</time>
      </trkpt>
      <trkpt lat="44.17761" lon="5.65828">
        <ele>811</ele>
        <time>2022-01-27T06:01:31Z</time>
      </trkpt>
      <trkpt lat="44.17754" lon="5.65839">
        <ele>808</ele>
        <time>2022-01-27T06:01:31Z</time>
      </trkpt>
      <trkpt lat="44.17752" lon="5.65863">
        <ele>804</ele>
        <time>2022-01-27T06:01:31Z</time>
      </trkpt>
      <trkpt lat="44.17748" lon="5.6588">
        <ele>800</ele>
        <time>2022-01-27T06:01:31Z</time>
      </trkpt>
      <trkpt lat="44.17743" lon="5.65889">
        <ele>797</ele>
        <time>2022-01-27T06:01:31Z</time>
      </trkpt>
      <trkpt lat="44.17738" lon="5.65916">
        <ele>793</ele>
        <time>2022-01-27T06:01:31Z</time>
      </trkpt>
      <trkpt lat="44.1773" lon="5.65928">
        <ele>790</ele>
        <time>2022-01-27T06:01:31Z</time>
      </trkpt>
      <trkpt lat="44.17723" lon="5.65934">
        <ele>786</ele>
        <time>2022-01-27T06:01:31Z</time>
      </trkpt>
      <trkpt lat="44.17719" lon="5.65962">
        <ele>782</ele>
        <time>2022-01-27T06:01:31Z</time>
      </trkpt>
      <trkpt lat="44.17711" lon="5.65975">
        <ele>779</ele>
        <time>2022-01-27T06:01:31Z</time>
      </trkpt>
      <trkpt lat="44.1771" lon="5.65993">
        <ele>775</ele>
        <time>2022-01-27T06:01:31Z</time>
      </trkpt>
      <trkpt lat="44.17703" lon="5.66018">
        <ele>772</ele>
        <time>2022-01-27T06:01:31Z</time>
      </trkpt>
      <trkpt lat="44.17694" lon="5.66036">
        <ele>768</ele>
        <time>2022-01-27T06:01:31Z</time>
      </trkpt>
      <trkpt lat="44.17702" lon="5.66077">
        <ele>764</ele>
        <time>2022-01-27T06:01:31Z</time>
      </trkpt>
      <trkpt lat="44.17721" lon="5.66129">
        <ele>748</ele>
        <time>2022-01-27T06:01:31Z</time>
      </trkpt>
    </trkseg>
  </trk>
</gpx>